NOAA 16 DEB, 41405

Orbit data source: Space-Track

NOAA 16 DEB, 41405 is space debris in SSO originally from a launch on Thu, 21 Sep 2000 UTC launched from the Air Force Western Test Range (AFWTR). Debris objects in space refer to the collection of defunct objects orbiting the Earth. Examples of debris include non-operational satellites, rocket bodies, and fragments generated from explosions, collisions, or faulty payload assembly.

Loading next visibility...
Identifier
41405, 2000-055KJ
Orbit
SSO
Country
Flag of USUS
Related business
Manufacturer
Unknown
Mission
Spacecraft
Bus & Motor
Unknown
Mass
Unknown
Launch date (UTC)
2000-09-21 (26 years ago)
Launch vehicle
Unknown
Launch site
Air Force Western Test Range (AFWTR)
Object type
Payload
Rocket body
Debris
Shape & HBR
Unknown shape, 0.1 m
Radar Cross Section
Medium (>0.1 m² and <1 m²)

Expand to show TLE details & history
Last TLE update: 2 days ago

TLE from 2 days ago
0 NOAA 16 DEB
1 41405U 00055KJ  26254.36334245  .00011475  00000-0  22160-2 0  9994
2 41405  98.8536  41.7161 0009350  88.1345 272.0926 14.63577039548078
Epoch: 2026-09-11T08:43Z
TLE epoch observation values (Epoch: 2026-09-11T08:43:12.787Z)
Latitude
-0.00001°
Longitude
-79.47495°
Altitude
684.382 km
Speed
7.514 km/s
True Right ascension
02h 46m 51s
True Declination
0° 00' 00"
Sunlit
Object was in full shadow at epoch
Visualization orbit readout
Latitude
Unknown
Longitude
Unknown
Altitude
Unknown
Speed
Unknown
Apparent Right ascension
Unknown
Apparent Declination
Unknown
Sunlit
N/A
Visualization observer readout
Local Sidereal Time
18:35:29
Azimuth
Unknown
Elevation
Unknown
Doppler factor
Unknown
Orbital elements
Apogee altitude
685.353 km
Perigee altitude
672.157 km
Semi-major axis
7,056.892 km
Eccentricity
0.00094
Inclination
98.8536°
RAAN
41.7161°
Arg. of periapsis
88.1345°
True anomaly
271.98552°
Mean anomaly
272.0926°
Eccentric anomaly
272.03906°
Mean motion
3.6612 °/min
Orbital period
98.33 mins
BSTAR
0.002216
Loading maneuver chart data...
Computing Atmospheric mass density...
Loading historical data...
Loading historical data...
Loading historical data...
Loading historical data...
Loading historical data...
Loading historical data...
Loading historical data...

Documentation

Showing up to 5 results
|